TIANLIAN 1-04

Last updated on Oct. 23, 2020, 5:56 a.m. UTC

1 41869U 16072A   20296.87548465 -.00000123  00000-0  00000-0 0  9997
2 41869   0.0855  85.6896 0014800  20.9622 317.3978  1.00271993 14616
UTC
Height (km)
Latitude
Longitude
Inclination
Orbital Period
UTC large
Height (km)
Speed (km/s)
/
Latitude / Longitude
Inclination (degrees)
Orbital Period (minutes)
Azimuth
Elevation
Range (km)
Doppler Factor
iOS Compass Heading
iOS Angle

Next 30 passes for location: Hong Kong

Rise time Rise Azimuth (degrees) Set time Set Azimuth (degrees) Duration Max altitude (degrees)

No matching passes for this satellites